This demonstration page uses our WeatherBlox Daily Observations layout. Learn more.

Left ArrowRight Arrow

Hourly Observations for September 23, 2021

Temp ( °F °C ) Dew Point ( °F °C ) Humidity (%) Winds ( mph kmh ) Pressure ( in mb ) Visibility ( mi km ) Precip ( " mm )
12:15 am 00:15 Clear 57 13.9 41 4.8 54 54 SE 8 13 30.07 1018 10 16 N/A
12:35 am 00:35 Clear 56 13.4 40 4.7 56 56 SSE 8 13 30.07 1018 10 16 N/A
12:55 am 00:55 Clear 55 13 40 4.7 57 57 SSE 8 13 30.06 1018 10 16 N/A
1:15 am 01:15 Clear 56 13.1 40 4.6 57 57 SE 7 11 30.06 1018 10 16 N/A
1:35 am 01:35 Clear 54 12.1 40 4.7 61 61 SE 6 9 30.06 1018 10 16 N/A
1:55 am 01:55 Clear 51 10.7 41 5 68 68 ESE 5 7 30.07 1018 10 16 N/A
2:15 am 02:15 Clear 49 9.6 41 4.9 73 73 ESE 6 9 30.08 1019 10 16 N/A
2:35 am 02:35 Clear 50 10 41 4.8 70 70 SE 3 6 30.07 1018 10 16 N/A
2:55 am 02:55 Clear 50 9.8 41 4.8 71 71 ESE 3 6 30.07 1018 10 16 N/A
3:15 am 03:15 Clear 47 8.3 40 4.6 78 78 ESE 3 6 30.09 1019 10 16 N/A
3:35 am 03:35 Clear 50 10 40 4.7 70 70 SSE 6 9 30.06 1018 10 16 N/A
3:55 am 03:55 Clear 49 9.7 40 4.7 71 71 N N/A 30.06 1018 10 16 N/A
4:15 am 04:15 Clear 47 8.5 40 4.2 75 75 SE 3 6 30.08 1018 10 16 N/A
4:35 am 04:35 Clear 45 7.2 39 4.1 81 81 N N/A 30.09 1019 10 16 N/A
4:55 am 04:55 Clear 47 8.3 40 4.4 77 77 ESE 5 7 30.07 1018 10 16 N/A
5:15 am 05:15 Clear 44 6.6 39 3.8 83 83 SE 3 6 30.08 1019 10 16 N/A
5:35 am 05:35 Clear 45 7.2 40 4.2 81 81 SE 5 7 30.08 1019 10 16 N/A
5:55 am 05:55 Clear 46 7.5 39 4 79 79 SE 6 9 30.06 1018 10 16 N/A
6:15 am 06:15 Clear 43 6.2 39 3.7 84 84 ESE 5 7 30.08 1019 10 16 N/A
6:35 am 06:35 Clear 44 6.8 40 4.5 85 85 SE 6 9 30.07 1018 10 16 N/A
6:55 am 06:55 Clear 46 7.5 40 4.4 81 81 SE 5 7 30.05 1018 10 16 N/A
7:15 am 07:15 Clear 46 7.7 40 4.5 80 80 SE 5 7 30.05 1018 10 16 N/A
7:35 am 07:35 Sunny 40 4.4 37 3 91 91 N N/A 30.08 1019 10 16 N/A
7:55 am 07:55 Sunny 41 5.2 39 3.8 91 91 E 6 9 30.08 1018 10 16 N/A
8:15 am 08:15 Sunny 44 6.7 41 5.2 90 90 E 3 6 30.06 1018 7 11 N/A
8:35 am 08:35 Sunny 49 9.3 45 7 86 86 N N/A 30.04 1017 10 16 N/A
8:55 am 08:55 Sunny 53 11.9 42 5.5 65 65 SSE 6 9 29.99 1016 10 16 N/A
9:15 am 09:15 Sunny 56 13.6 42 5.8 60 60 S 5 7 29.99 1016 10 16 N/A
9:35 am 09:35 Sunny 60 15.3 43 5.9 54 54 SSW 3 6 29.96 1015 10 16 N/A
9:55 am 09:55 Sunny 63 17.3 41 5.2 45 45 SSW 8 13 29.95 1014 10 16 N/A
10:15 am 10:15 Sunny 65 18.4 43 5.9 44 44 SSW 10 17 29.93 1013 10 16 N/A
10:35 am 10:35 Sunny 66 19 42 5.8 42 42 SSW 8 13 29.92 1013 10 16 N/A
10:55 am 10:55 Sunny 67 19.6 43 6 41 41 SSW 8 13 29.92 1013 10 16 N/A
11:15 am 11:15 Sunny 69 20.4 43 6.3 40 40 SSW 7 11 29.91 1013 10 16 N/A
11:35 am 11:35 Sunny 70 21.3 44 6.7 39 39 S 7 11 29.90 1013 10 16 N/A
11:55 am 11:55 Sunny 72 22.1 45 7 38 38 S 6 9 29.88 1012 10 16 N/A
12:15 pm 12:15 Sunny 73 22.9 45 7.1 36 36 SSE 5 7 29.88 1012 10 16 N/A
12:35 pm 12:35 Sunny 74 23.5 46 7.5 36 36 SSE 7 11 29.86 1011 10 16 N/A
12:55 pm 12:55 Sunny 76 24.6 46 7.8 34 34 SSE 6 9 29.84 1011 10 16 N/A
1:15 pm 13:15 Sunny 77 25.2 47 8.3 34 34 SSE 8 13 29.83 1010 10 16 N/A
1:35 pm 13:35 Sunny 78 25.7 48 8.7 34 34 S 10 17 29.81 1010 10 16 N/A
1:55 pm 13:55 Sunny 79 26.1 48 9 34 34 S 12 19 29.80 1009 10 16 N/A
2:15 pm 14:15 Sunny 79 26.2 48 9.1 34 34 SSE 12 19 29.79 1009 10 16 N/A
2:35 pm 14:35 Sunny 80 26.7 48 9 33 33 S 14 22 29.78 1008 10 16 N/A
2:55 pm 14:55 Sunny 82 27.7 48 9 31 31 S 13 20 29.76 1008 10 16 N/A
3:15 pm 15:15 Sunny 82 28 47 8.5 29 29 SSW 10 17 29.76 1008 10 16 N/A
3:35 pm 15:35 Sunny 83 28.1 48 8.8 30 30 S 12 19 29.75 1008 10 16 N/A
3:55 pm 15:55 Sunny 83 28.5 48 8.8 29 29 S 12 19 29.74 1007 10 16 N/A
4:15 pm 16:15 Sunny 83 28.6 47 8.5 28 28 S 12 19 29.74 1007 10 16 N/A
4:35 pm 16:35 Sunny 84 28.7 47 8.6 28 28 S 12 19 29.74 1007 10 16 N/A
4:55 pm 16:55 Sunny 83 28.6 47 8.6 29 29 SSE 10 17 29.74 1007 10 16 N/A
5:15 pm 17:15 Sunny 83 28.6 47 8.5 28 28 SSE 13 20 29.74 1007 10 16 N/A
5:35 pm 17:35 Sunny 83 28.5 47 8.4 28 28 S 12 19 29.74 1007 10 16 N/A
5:55 pm 17:55 Sunny 82 28 47 8.6 30 30 SSE 10 17 29.74 1007 10 16 N/A
6:15 pm 18:15 Sunny 82 27.5 48 9 31 31 SSE 8 13 29.74 1007 10 16 N/A
6:35 pm 18:35 Sunny 80 26.4 50 9.8 35 35 SSE 8 13 29.75 1007 10 16 N/A
6:55 pm 18:55 Sunny 77 25.2 50 9.8 38 38 SE 8 13 29.76 1008 10 16 N/A
7:15 pm 19:15 Sunny 75 24.1 49 9.6 40 40 SE 7 11 29.77 1008 10 16 N/A
7:35 pm 19:35 Clear 73 23 49 9.7 43 43 SE 7 11 29.78 1008 10 16 N/A
7:55 pm 19:55 Clear 71 21.6 50 9.8 47 47 SE 6 9 29.79 1009 10 16 N/A
8:15 pm 20:15 Clear 69 20.3 50 9.9 51 51 ESE 5 7 29.81 1009 10 16 N/A
8:35 pm 20:35 Clear 61 16.3 51 10.5 69 69 E 3 6 29.84 1011 7 11 N/A
8:55 pm 20:55 Clear 61 16.2 51 10.3 68 68 ESE 5 7 29.85 1011 10 16 N/A
9:15 pm 21:15 Clear 64 17.6 51 10.3 62 62 N N/A 29.84 1011 10 16 N/A
9:35 pm 21:35 Clear 62 16.5 51 10.3 67 67 N N/A 29.85 1011 10 16 N/A
9:55 pm 21:55 Clear 63 17.2 50 9.9 62 62 N N/A 29.85 1011 10 16 N/A
10:15 pm 22:15 Clear 57 14 49 9.7 76 76 NW 9 15 29.88 1012 10 16 N/A
10:35 pm 22:35 Clear 58 14.7 50 9.8 73 73 NNW 6 9 29.88 1012 10 16 N/A
10:55 pm 22:55 Clear 58 14.4 49 9.7 74 74 WNW 5 7 29.88 1012 10 16 N/A
11:15 pm 23:15 Clear 58 14.6 49 9.6 72 72 SSW 6 9 29.87 1011 10 16 N/A
11:35 pm 23:35 Clear 56 13.3 49 9.3 77 77 WSW 7 11 29.88 1012 10 16 N/A
11:55 pm 23:55 Clear 56 13.2 48 9 76 76 W 6 9 29.88 1012 10 16 N/A

Powered by AerisWeather